#timestamp,LO_Frequency,Hit 
1501110015.8,286047989.2,N
1501110035.6,286047986.9,N
1501110055.4,286048221.2,N
1501110075.3,286048094.0,N
1501110095.1,286048133.0,N
1501110096.0,286048133.0,N
1501110115.8,286048221.5,N
1501110135.7,286048176.5,N
1501110155.5,286048217.8,N
1501110175.3,286048221.9,N
1501110195.1,286048219.3,N
1501110215.9,286048217.8,N
1501110235.7,286046780.0,N
1501110255.5,286046777.4,N
1501110275.4,286046778.1,N
1501110295.2,286046776.2,N
1501110315.0,286046793.2,N
1501110315.9,286046793.2,N
1501110335.8,286046777.4,N
1501110355.6,286046784.6,N
1501110375.4,286046698.0,N
1501110395.3,286046790.4,N
1501110415.1,286046667.3,N
1501110416.0,286046667.3,N
1501110435.8,286046648.4,N
1501110455.6,286046657.4,N
1501110475.5,286046656.1,N
1501110495.3,286047043.2,N
1501110515.1,286047041.5,N
1501110535.9,286046914.4,N
1501110555.7,286047041.9,N
1501110575.5,286046793.4,N
1501110595.4,286046757.8,N
1501110615.2,286046753.4,N
1501110635.0,286046753.7,N
1501110635.9,286046753.7,N
1501110655.8,286046804.0,N
1501110675.6,286046801.1,N
1501110695.4,286046810.2,N
1501110715.2,286046808.4,N
1501110735.1,286046807.3,N
1501110736.0,286046807.3,N
1501110755.8,286046846.5,N
1501110775.6,286046845.9,N
1501110795.5,286046827.5,N
1501110815.3,286046828.7,N
1501110835.1,286046825.7,N
1501110855.9,286046873.3,N
1501110875.7,286046825.7,N
1501110895.5,286046873.4,N
1501110915.4,286047072.1,N
1501110935.2,286046872.2,N
1501110955.0,286046762.1,N
1501110955.9,286046762.1,N
1501110975.8,286046761.9,N
1501110995.6,286046763.7,N
1501111015.4,286046760.8,N
1501111035.2,286046850.1,N
1501111055.1,286046425.4,N
1501111056.0,286046425.4,N
1501111075.8,286046428.7,N
1501111095.6,286046868.4,N
1501111115.5,286046689.0,N
1501111135.3,286046460.4,N
1501111155.1,286046456.7,N
1501111175.9,286045301.7,N
1501111195.7,286046106.6,N
1501111215.5,286046867.2,N
1501111235.4,286046103.4,N
1501111255.2,286046103.6,N
1501111275.0,286046042.9,N
1501111275.9,286046042.9,N
1501111295.7,286046044.3,N
1501111315.6,286046354.1,N
1501111335.4,286046641.9,N
1501111355.2,286046386.1,N
1501111375.1,286046278.1,N
1501111376.0,286046278.1,N
1501111395.8,286046129.3,N
1501111415.6,286046131.6,N
1501111435.5,286046750.1,N
1501111455.3,286046599.6,N
1501111475.1,286045930.3,N
1501111495.9,286045932.3,N
1501111515.7,286046323.8,N
1501111535.5,286045930.2,N
1501111555.4,286046315.3,N
1501111575.2,286046117.9,N
1501111595.0,286045954.4,N
1501111595.9,286045954.4,N
1501111615.7,286046273.4,N
1501111635.6,286046135.6,N
1501111655.4,286046961.4,N
1501111675.2,286046956.5,N
1501111695.1,286048820.1,N
1501111696.0,286048820.1,N
1501111715.8,286047477.2,N
1501111735.6,286047532.7,N
1501111755.5,286047536.0,N
1501111775.3,286047536.1,N
1501111795.1,286047549.6,N
1501111815.9,286047549.4,N
1501111835.7,286046776.3,N
1501111855.5,286047610.9,N
1501111875.3,286046773.0,N
1501111895.2,286046774.3,N
1501111915.0,286046887.9,N
1501111915.9,286046887.9,N
1501111935.7,286046784.0,N
1501111955.6,286046841.0,N
1501111975.4,286047450.2,N
1501111995.2,286046843.1,N
1501112015.1,286046840.3,N
1501112016.0,286046840.3,N
1501112035.8,286047338.0,N
1501112055.6,286047472.8,N
1501112075.5,286046784.5,N
1501112095.3,286046785.5,N
1501112115.1,286046786.5,N
1501112135.9,286047300.8,N
1501112155.7,286047195.5,N
1501112175.5,286048310.8,N
1501112195.3,286047227.2,N
1501112215.2,286047625.1,N
1501112235.9,286047576.6,N
1501112255.7,286047123.7,N
1501112275.6,286047123.6,N
1501112295.4,286046776.4,N
1501112315.2,286047271.6,N
1501112335.1,286047328.5,N
1501112336.0,286047328.5,N
1501112355.8,286047201.1,N
1501112375.6,286046628.4,N
1501112395.5,286046774.4,N
1501112415.3,286046619.6,N
1501112435.1,286048345.3,N
1501112455.8,286046671.0,N
1501112475.7,286047275.1,N
1501112495.5,286046782.4,N
1501112515.3,286046817.4,N
1501112535.2,286046901.7,N
1501112555.9,286046785.0,N
1501112575.7,286046784.6,N
1501112595.6,286046784.6,N
1501112615.4,286046787.4,N
1501112635.2,286046788.3,N
1501112655.1,286046786.7,N
1501112656.0,286046786.7,N
1501112675.8,286046781.8,N
1501112695.6,286046780.3,N
1501112715.4,286046779.9,N
1501112735.3,286046775.6,N
1501112755.1,286046771.1,N
1501112775.8,286046770.4,N
1501112795.7,286046768.0,N
1501112815.5,286046768.0,N
1501112835.3,286046769.7,N
1501112855.2,286046769.8,N
1501112875.9,286046769.4,N
1501112895.7,286046768.0,N
1501112915.6,286046764.8,N
1501112935.4,286046761.6,N
1501112955.2,286046763.6,N
1501112975.0,286046765.5,N
1501112975.9,286046765.5,N
1501112995.8,286046761.6,N
1501113015.6,286046762.5,N
1501113035.4,286046763.6,N
1501113055.3,286046764.3,N
1501113075.1,286046759.9,N
1501113095.8,286046760.1,N
1501113115.7,286046760.5,N
1501113135.5,286046758.7,N
1501113155.3,286046758.8,N
1501113175.2,286046758.3,N
1501113195.9,286046757.0,N
1501113215.7,286046756.5,N
1501113235.6,286046758.3,N
1501113255.4,286046761.0,N
1501113275.2,286046761.1,N
1501113295.0,286046760.3,N
1501113295.9,286046760.3,N
1501113315.8,286046761.3,N
1501113335.6,286046761.9,N
1501113355.4,286046761.3,N
1501113375.3,286046767.5,N
1501113395.1,286046766.5,N
1501113396.0,286046766.5,N
1501113415.8,286046768.7,N
1501113435.7,286046768.0,N
1501113455.5,286046766.1,N
1501113475.3,286046770.1,N
1501113495.2,286046772.0,N
1501113515.9,286046772.1,N
1501113535.7,286046768.1,N
1501113555.5,286046768.5,N
1501113575.4,286046769.7,N
1501113595.2,286046772.3,N
